sat.trackr.live / text

‹ back to catalog

COSMOS 2528

NORAD 43657 · 2018-082A

PAYLOAD ACTIVE UNKNOWN

§ Identity

Operator
Country
CIS
Launch date
2018-10-25
Launch site
PLMSC
Launch vehicle
Mass (kg)
RCS (m²)

External: N2YO · Heavens-Above · Gunter

§ Orbital elements

Epoch: 2026-05-25T02:16:57.465120Z

Period
103.10 min
Inclination
67.1466°
Eccentricity
0.0007709
Mean motion
13.96707646 rev/d
Perigee alt
899.6 km
Apogee alt
910.8 km
Semi-major
7,283.4 km
B*
3.8437e-5
RAAN
133.8826°
Arg perigee
281.7891°
Mean anomaly
78.2329°
Rev number
38,672

§ Raw data

COSMOS 25281 43657U 18082A   26145.09510955 -.00000022  00000+0  38437-4 0  99992 43657  67.1466 133.8826 0007709 281.7891  78.2329 13.96707646386723

JSON: /api/v1/satellites/43657 · /tle

For live sub-satellite position, see the globe view (requires WebGL).

§ Visibility from observer

Set your observer location to see the next 7 days of passes ≥ 10°. The values pass through the URL so the page stays shareable.

No JS? Fill the form by hand. The geolocation button needs JavaScript.